Location: Unspecified
(0.0000°N, 0.0000°E)
Time: 09:11:56
(UTC+00:00)

A-11 Canister half - Pass Details

Date: 18 June 2024
Orbit: 1515 x 1684 km, 47.2° (Epoch: 23 July)

Event Time Altitude Azimuth Distance (km) Brightness Sun altitude
Rises 05:27:56 0° 289° (WNW) 4,661 11.1 -7.6°
Reaches altitude 10° 05:31:51 10° 275° (W) 3,671 10.5 -6.7°
Maximum altitude 05:38:34 22° 227° (SW) 2,818 9.9 -5.2°
Drops below altitude 10° 05:45:21 10° 180° (S) 3,691 10.8 -3.6°
Sets 05:49:23 0° 165° (SSE) 4,692 11.5 -2.7°
